When you browse on this site, cookies collect data to enhance your experience and personalize the content and advertising you see.
Visit our Privacy Policy to learn more. By continuing to use the site, you agree to this use of cookies and data.
  • Em Portugal
  • Lista de países
  • Para 7 dias
  • Temperatura da água
  • Mapas de satélite
  • Mapa do tempo
  • Widgets de tempo
  • user-avatar
    Iniciar Sessão

    Previsão horária em Dyatlovschina

    Hoje, 24 Abril, Quarta-feira

    Tempo Temperatura Precipitação Vento Pressão Humidade
    00:00 +11°C° 0 mm 1 m/s 758 mmHg 52%
    01:00 +11°C° 0 mm 1 m/s 758 mmHg 53%
    02:00 +11°C° 0 mm 1 m/s 758 mmHg 55%
    03:00 +10°C° 0 mm 1 m/s 758 mmHg 56%
    04:00 +10°C° 0 mm 1 m/s 758 mmHg 57%
    05:00 +10°C° 0 mm 1 m/s 758 mmHg 58%
    06:00 +12°C° 0 mm 1 m/s 758 mmHg 55%
    07:00 +14°C° 0 mm 1 m/s 758 mmHg 51%
    08:00 +16°C° 0 mm 2 m/s 758 mmHg 47%
    09:00 +17°C° 0 mm 2 m/s 758 mmHg 42%
    10:00 +19°C° 0 mm 2 m/s 758 mmHg 37%
    11:00 +20°C° 0 mm 3 m/s 758 mmHg 33%
    12:00 +21°C° 0 mm 3 m/s 758 mmHg 32%
    13:00 +21°C° 0 mm 3 m/s 758 mmHg 31%
    14:00 +22°C° 0 mm 3 m/s 757 mmHg 30%
    15:00 +22°C° 0 mm 3 m/s 757 mmHg 31%
    16:00 +21°C° 0 mm 3 m/s 757 mmHg 32%
    17:00 +21°C° 0 mm 3 m/s 757 mmHg 33%
    18:00 +19°C° 0 mm 2 m/s 756 mmHg 38%
    19:00 +17°C° 0 mm 2 m/s 756 mmHg 43%
    20:00 +15°C° 0 mm 2 m/s 756 mmHg 47%
    21:00 +14°C° 0 mm 2 m/s 756 mmHg 49%
    22:00 +14°C° 0 mm 2 m/s 757 mmHg 51%
    23:00 +13°C° 0 mm 2 m/s 757 mmHg 53%

    Amanhã, 25 Abril, Quinta-feira

    Tempo Temperatura Precipitação Vento Pressão Humidade
    00:00 +12°C° 0 mm 2 m/s 757 mmHg 54%
    01:00 +12°C° 0 mm 1 m/s 757 mmHg 55%
    02:00 +11°C° 0 mm 1 m/s 757 mmHg 57%
    03:00 +11°C° 0 mm 1 m/s 757 mmHg 58%
    04:00 +11°C° 0 mm 1 m/s 757 mmHg 59%
    05:00 +10°C° 0 mm 1 m/s 757 mmHg 60%
    06:00 +12°C° 0 mm 1 m/s 757 mmHg 56%
    07:00 +14°C° 0 mm 2 m/s 757 mmHg 52%
    08:00 +16°C° 0 mm 2 m/s 757 mmHg 48%
    09:00 +18°C° 0 mm 3 m/s 757 mmHg 43%
    10:00 +19°C° 0 mm 4 m/s 756 mmHg 38%
    11:00 +21°C° 0 mm 5 m/s 756 mmHg 33%
    12:00 +21°C° 0 mm 5 m/s 756 mmHg 32%
    13:00 +22°C° 0 mm 5 m/s 756 mmHg 31%
    14:00 +22°C° 0 mm 5 m/s 755 mmHg 31%
    15:00 +22°C° 0 mm 4 m/s 755 mmHg 32%
    16:00 +22°C° 0 mm 4 m/s 754 mmHg 33%
    17:00 +21°C° 0 mm 4 m/s 754 mmHg 35%
    18:00 +19°C° 0 mm 3 m/s 754 mmHg 40%
    19:00 +17°C° 0 mm 3 m/s 754 mmHg 45%
    20:00 +15°C° 0 mm 2 m/s 754 mmHg 51%
    21:00 +14°C° 0 mm 2 m/s 754 mmHg 53%
    22:00 +14°C° 0 mm 2 m/s 754 mmHg 55%
    23:00 +13°C° 0 mm 2 m/s 754 mmHg 57%

    Depois de amanhã, 26 Abril, Sexta-feira

    Tempo Temperatura Precipitação Vento Pressão Humidade
    00:00 +12°C° 0 mm 2 m/s 754 mmHg 59%
    01:00 +12°C° 0 mm 2 m/s 754 mmHg 60%
    02:00 +12°C° 0 mm 2 m/s 754 mmHg 62%
    03:00 +10°C° 0 mm 2 m/s 753 mmHg 64%
    04:00 +10°C° 0 mm 2 m/s 753 mmHg 66%
    05:00 +10°C° 0 mm 2 m/s 753 mmHg 68%
    06:00 +11°C° 0 mm 3 m/s 753 mmHg 63%
    07:00 +13°C° 0 mm 3 m/s 753 mmHg 58%
    08:00 +15°C° 0 mm 4 m/s 753 mmHg 54%
    09:00 +18°C° 0 mm 4 m/s 753 mmHg 48%
    10:00 +19°C° 0 mm 5 m/s 752 mmHg 42%
    11:00 +21°C° 0 mm 6 m/s 752 mmHg 36%
    12:00 +21°C° 0 mm 6 m/s 752 mmHg 35%
    13:00 +22°C° 0 mm 6 m/s 751 mmHg 34%
    14:00 +23°C° 0 mm 6 m/s 751 mmHg 33%
    15:00 +22°C° 0 mm 5 m/s 750 mmHg 34%
    16:00 +22°C° 0 mm 5 m/s 750 mmHg 35%
    17:00 +22°C° 0 mm 4 m/s 750 mmHg 37%
    18:00 +20°C° 0 mm 4 m/s 750 mmHg 41%
    19:00 +18°C° 0 mm 3 m/s 749 mmHg 45%
    20:00 +14°C° 0 mm 3 m/s 749 mmHg 50%
    21:00 +14°C° 0 mm 3 m/s 749 mmHg 51%
    22:00 +13°C° 0 mm 3 m/s 749 mmHg 52%
    23:00 +13°C° 0 mm 3 m/s 749 mmHg 53%

    27 Abril, Sábado

    Tempo Temperatura Precipitação Vento Pressão Humidade
    00:00 +12°C° 0 mm 3 m/s 749 mmHg 55%
    01:00 +12°C° 0 mm 3 m/s 748 mmHg 58%
    02:00 +12°C° 0 mm 3 m/s 748 mmHg 60%
    03:00 +12°C° 0 mm 3 m/s 748 mmHg 62%
    04:00 +11°C° 0 mm 3 m/s 747 mmHg 63%
    05:00 +11°C° 0 mm 3 m/s 747 mmHg 65%
    06:00 +13°C° 0 mm 3 m/s 747 mmHg 64%
    07:00 +14°C° 0 mm 4 m/s 747 mmHg 63%
    08:00 +15°C° 0 mm 4 m/s 746 mmHg 62%
    09:00 +18°C° 0 mm 4 m/s 746 mmHg 58%
    10:00 +19°C° 0 mm 5 m/s 746 mmHg 54%
    11:00 +21°C° 0 mm 5 m/s 746 mmHg 50%
    12:00 +22°C° 0 mm 5 m/s 745 mmHg 48%
    13:00 +23°C° 0 mm 5 m/s 745 mmHg 47%
    14:00 +25°C° 0 mm 5 m/s 745 mmHg 45%
    15:00 +23°C° 0.4 mm 4 m/s 744 mmHg 49%
    16:00 +24°C° 0.4 mm 3 m/s 744 mmHg 54%
    17:00 +23°C° 0.4 mm 2 m/s 744 mmHg 58%
    18:00 +21°C° 0.3 mm 2 m/s 744 mmHg 64%
    19:00 +19°C° 0.3 mm 2 m/s 744 mmHg 70%
    20:00 +19°C° 0.3 mm 1 m/s 744 mmHg 76%
    21:00 +18°C° 0 mm 1 m/s 743 mmHg 80%
    22:00 +16°C° 0 mm 1 m/s 743 mmHg 84%
    23:00 +16°C° 0 mm 1 m/s 743 mmHg 87%

    28 Abril, Domingo

    Tempo Temperatura Precipitação Vento Pressão Humidade
    00:00 +15°C° 0.2 mm 1 m/s 743 mmHg 89%
    01:00 +15°C° 0.2 mm 1 m/s 744 mmHg 91%
    02:00 +14°C° 0.2 mm 1 m/s 744 mmHg 93%
    03:00 +14°C° 0 mm 1 m/s 744 mmHg 93%
    04:00 +14°C° 0 mm 1 m/s 744 mmHg 93%
    05:00 +14°C° 0 mm 1 m/s 744 mmHg 94%
    06:00 +15°C° 0 mm 1 m/s 744 mmHg 89%
    07:00 +17°C° 0 mm 2 m/s 744 mmHg 84%
    08:00 +18°C° 0 mm 2 m/s 744 mmHg 78%
    09:00 +19°C° 0.3 mm 2 m/s 745 mmHg 73%
    10:00 +21°C° 0.3 mm 3 m/s 745 mmHg 67%
    11:00 +22°C° 0.3 mm 3 m/s 745 mmHg 62%
    12:00 +22°C° 1 mm 3 m/s 745 mmHg 61%
    13:00 +22°C° 1 mm 4 m/s 745 mmHg 61%
    14:00 +22°C° 1 mm 4 m/s 745 mmHg 60%
    15:00 +22°C° 0.3 mm 4 m/s 745 mmHg 61%
    16:00 +21°C° 0.3 mm 4 m/s 746 mmHg 62%
    17:00 +21°C° 0.3 mm 5 m/s 746 mmHg 62%
    18:00 +20°C° 0 mm 4 m/s 746 mmHg 67%
    19:00 +18°C° 0 mm 4 m/s 747 mmHg 72%
    20:00 +17°C° 0 mm 4 m/s 747 mmHg 77%
    21:00 +15°C° 0 mm 4 m/s 747 mmHg 80%
    22:00 +14°C° 0 mm 5 m/s 748 mmHg 83%
    23:00 +13°C° 0 mm 5 m/s 748 mmHg 85%

    29 Abril, Segunda-feira

    Tempo Temperatura Precipitação Vento Pressão Humidade
    00:00 +13°C° 0 mm 5 m/s 748 mmHg 85%
    01:00 +12°C° 0 mm 5 m/s 749 mmHg 85%
    02:00 +10°C° 0 mm 5 m/s 749 mmHg 85%
    03:00 +10°C° 0 mm 5 m/s 749 mmHg 83%
    04:00 +9°C° 0 mm 5 m/s 749 mmHg 81%
    05:00 +8°C° 0 mm 5 m/s 749 mmHg 79%
    06:00 +9°C° 0 mm 5 m/s 750 mmHg 74%
    07:00 +10°C° 0 mm 5 m/s 750 mmHg 70%
    08:00 +10°C° 0 mm 5 m/s 750 mmHg 65%
    09:00 +13°C° 0 mm 6 m/s 750 mmHg 62%
    10:00 +14°C° 0 mm 6 m/s 751 mmHg 58%
    11:00 +16°C° 0 mm 6 m/s 751 mmHg 55%
    12:00 +16°C° 0 mm 6 m/s 751 mmHg 53%
    13:00 +17°C° 0 mm 6 m/s 751 mmHg 52%
    14:00 +17°C° 0 mm 6 m/s 751 mmHg 51%
    15:00 +17°C° 0 mm 5 m/s 751 mmHg 52%
    16:00 +16°C° 0 mm 5 m/s 751 mmHg 53%
    17:00 +16°C° 0 mm 5 m/s 751 mmHg 53%
    18:00 +15°C° 0 mm 4 m/s 751 mmHg 55%
    19:00 +13°C° 0 mm 4 m/s 751 mmHg 58%
    20:00 +12°C° 0 mm 4 m/s 751 mmHg 60%
    21:00 +11°C° 0 mm 4 m/s 751 mmHg 60%
    22:00 +11°C° 0 mm 4 m/s 752 mmHg 61%
    23:00 +10°C° 0 mm 4 m/s 752 mmHg 61%
    Mostrar mais